EW9755 Weather Reports


time (UTC)temp
F
wind
direction
speed
knots
gust
knots
rain 1hr
in
rain 24hr
in
rain mn
in
humidity
%
barometer
mb
20260504150540 74 147 13.9 19.1 0.00 0.00 0.00 63 1016.5
20260504140540 73 146 13.0 17.4 0.00 0.00 0.00 63 1016.1
20260504130540 72 130 10.4 14.8 0.00 0.00 0.00 63 1016.1
20260504130109 72 137 7.8 15.6 0.00 0.00 0.00 64 1016.1
20260504110540 70 132 8.7 14.8 0.00 0.00 0.00 61 1015.8
20260504110110 70 134 11.3 14.8 0.00 0.00 0.00 61 1015.8
20260504100540 70 133 9.6 12.2 0.00 0.00 0.00 59 1016.1
20260504090112 70 129 9.6 13.0 0.00 0.00 0.00 55 1016.1
20260504081900 70 131 10.4 13.9 0.00 0.00 0.00 54 1016.8
20260504081220 70 133 10.4 13.9 0.00 0.00 0.00 52 1016.8
20260504080542 70 127 11.3 13.9 0.00 0.00 0.00 51 1016.8
20260504070113 71 127 11.3 15.6 0.00 0.00 0.00 49 1017.8
20260504050540 71 123 11.3 15.6 0.00 0.00 0.00 48 1018.8
20260504045901 71 126 9.6 15.6 0.00 0.00 0.00 50 1018.8
20260504045222 71 126 11.3 14.8 0.00 0.00 0.00 49 1019.2
20260504044540 71 117 12.2 13.9 0.00 0.00 0.00 46 1019.2
20260504044111 71 125 10.4 16.5 0.00 0.00 0.00 48 1019.2
20260504043220 72 121 10.4 14.8 0.00 0.00 0.00 47 1019.2
20260504042540 71 124 10.4 15.6 0.00 0.00 0.00 45 1019.2
20260504041900 72 124 13.0 15.6 0.00 0.00 0.00 45 1019.2
20260504041220 72 123 12.2 14.8 0.00 0.00 0.00 46 1019.2
20260504040540 71 114 10.4 14.8 0.00 0.00 0.00 46 1018.8
20260504035901 71 112 7.8 12.2 0.00 0.00 0.00 48 1019.2
20260504035430 71 93 7.0 12.2 0.00 0.00 0.00 48 1018.8
20260504034540 71 98 6.1 12.2 0.00 0.00 0.00 47 1019.2
20260504034112 71 103 7.8 12.2 0.00 0.00 0.00 48 1019.2
20260504033220 71 97 7.8 13.0 0.00 0.00 0.00 48 1018.8
20260504032753 71 92 9.6 13.0 0.00 0.00 0.00 46 1018.8
20260504032114 71 93 7.0 12.2 0.00 0.00 0.00 47 1018.8
20260504031220 71 91 7.8 13.9 0.00 0.00 0.00 47 1018.8
20260504030540 71 110 7.8 11.3 0.00 0.00 0.00 46 1018.8
20260504025900 71 119 8.7 11.3 0.00 0.00 0.00 46 1018.8
20260504025220 71 95 7.8 12.2 0.00 0.00 0.00 48 1018.8
20260504024540 71 85 7.8 12.2 0.00 0.00 0.00 45 1019.2
20260504023900 71 102 5.2 11.3 0.00 0.00 0.00 48 1018.8
20260504023220 71 88 7.0 11.3 0.00 0.00 0.00 47 1018.8
20260504022540 71 114 7.8 10.4 0.00 0.00 0.00 47 1018.8
20260504021900 71 98 6.1 12.2 0.00 0.00 0.00 47 1018.8
20260504021219 72 102 7.0 12.2 0.00 0.00 0.00 46 1018.8
20260504020539 71 112 7.0 11.3 0.00 0.00 0.00 46 1018.8
20260504015859 72 106 7.8 11.3 0.00 0.00 0.00 47 1018.8
20260504015219 72 118 8.7 11.3 0.00 0.00 0.00 45 1018.8
20260504014539 71 96 7.0 10.4 0.00 0.00 0.00 44 1019.2
20260504013859 71 113 7.8 9.6 0.00 0.00 0.00 44 1018.8
20260504013428 72 109 7.0 10.4 0.00 0.00 0.00 44 1019.2
20260504012539 72 110 7.8 10.4 0.00 0.00 0.00 45 1018.8
20260504012110 72 98 7.0 11.3 0.00 0.00 0.00 46 1018.8
20260504011219 71 87 7.0 9.6 0.00 0.00 0.00 46 1018.8
20260504010539 71 78 6.1 10.4 0.00 0.00 0.00 44 1018.8
20260504005859 72 69 7.0 12.2 0.00 0.00 0.00 44 1018.8
20260504005432 72 86 7.8 12.2 0.00 0.00 0.00 43 1018.8
20260504004539 72 74 5.2 9.6 0.00 0.00 0.00 41 1018.8
20260504004108 72 69 7.0 12.2 0.00 0.00 0.00 43 1018.8
20260504003219 72 79 6.1 12.2 0.00 0.00 0.00 44 1018.8
20260504002539 72 76 7.0 11.3 0.00 0.00 0.00 44 1018.5
20260504001859 72 74 6.1 9.6 0.00 0.00 0.00 46 1018.8
20260504001219 72 86 6.1 9.6 0.00 0.00 0.00 46 1018.8
20260504000540 72 75 5.2 11.3 0.00 0.00 0.00 44 1018.8
20260503235859 72 89 7.0 10.4 0.00 0.00 0.00 45 1018.8
20260503235219 72 90 7.0 10.4 0.00 0.00 0.00 45 1018.8
20260503234541 72 86 5.2 13.0 0.00 0.00 0.00 44 1019.2
20260503234109 72 58 7.8 12.2 0.00 0.00 0.00 47 1018.8
20260503233220 72 82 6.1 11.3 0.00 0.00 0.00 46 1019.2
20260503232539 72 81 4.3 11.3 0.00 0.00 0.00 44 1019.2
20260503231859 73 95 7.0 12.2 0.00 0.00 0.00 44 1019.2
20260503231219 72 75 8.7 12.2 0.00 0.00 0.00 44 1019.2
20260503230539 73 74 6.1 10.4 0.00 0.00 0.00 44 1019.5
20260503225859 73 83 5.2 10.4 0.00 0.00 0.00 44 1019.5
20260503225219 73 77 5.2 10.4 0.00 0.00 0.00 44 1019.5
20260503224539 74 91 5.2 11.3 0.00 0.00 0.00 43 1019.8
20260503223901 73 125 7.8 11.3 0.00 0.00 0.00 43 1019.8
20260503223219 74 84 7.0 11.3 0.00 0.00 0.00 43 1019.8
20260503222539 74 71 6.1 10.4 0.00 0.00 0.00 43 1019.8
20260503221859 73 127 5.2 12.2 0.00 0.00 0.00 44 1019.8
20260503221219 73 125 9.6 12.2 0.00 0.00 0.00 42 1019.8
20260503220753 73 125 9.6 12.2 0.00 0.00 0.00 42 1019.8
20260503215859 73 127 6.1 13.9 0.00 0.00 0.00 44 1020.2
20260503215219 73 115 9.6 13.9 0.00 0.00 0.00 42 1020.2
20260503214539 74 100 6.1 9.6 0.00 0.00 0.00 41 1020.2
20260503213859 73 73 7.8 10.4 0.00 0.00 0.00 43 1020.2
20260503213219 74 87 5.2 11.3 0.00 0.00 0.00 43 1020.2
20260503212539 74 97 8.7 13.9 0.00 0.00 0.00 42 1020.5
20260503212112 73 123 7.8 13.9 0.00 0.00 0.00 42 1020.5
20260503211219 73 127 9.6 13.0 0.00 0.00 0.00 42 1020.5
20260503210748 74 127 5.2 13.9 0.00 0.00 0.00 42 1020.5
20260503205859 74 93 7.8 12.2 0.00 0.00 0.00 41 1020.9
20260503205219 74 112 7.8 11.3 0.00 0.00 0.00 43 1020.9
20260503204751 73 48 3.5 11.3 0.00 0.00 0.00 43 1020.9
20260503203859 74 79 7.0 11.3 0.00 0.00 0.00 41 1020.9
20260503203219 73 59 5.2 12.2 0.00 0.00 0.00 43 1021.2
20260503202539 74 64 4.3 12.2 0.00 0.00 0.00 42 1021.2
20260503202113 74 92 7.0 13.9 0.00 0.00 0.00 43 1021.2
20260503201219 73 67 6.1 13.9 0.00 0.00 0.00 44 1021.5
20260503200749 73 62 7.8 13.9 0.00 0.00 0.00 44 1021.5
20260503200110 74 81 7.0 13.0 0.00 0.00 0.00 44 1021.5
20260503195220 73 91 9.6 12.2 0.00 0.00 0.00 43 1021.5
20260503194539 73 97 7.0 12.2 0.00 0.00 0.00 43 1021.5
20260503193859 73 81 2.6 11.3 0.00 0.00 0.00 43 1021.5
20260503193219 73 84 5.2 11.3 0.00 0.00 0.00 42 1021.9
20260503192540 73 51 8.7 13.9 0.00 0.00 0.00 42 1021.9
20260503191900 73 109 7.8 14.8 0.00 0.00 0.00 42 1021.9
20260503191219 73 98 9.6 14.8 0.00 0.00 0.00 42 1022.2
20260503190539 74 103 7.8 13.9 0.00 0.00 0.00 40 1022.2
20260503185859 74 98 3.5 12.2 0.00 0.00 0.00 40 1022.2
20260503185219 73 58 6.1 13.9 0.00 0.00 0.00 42 1022.2
20260503184752 73 65 7.0 13.0 0.00 0.00 0.00 42 1022.2
20260503183859 73 102 7.8 13.0 0.00 0.00 0.00 39 1022.6
20260503183219 74 94 7.0 13.0 0.00 0.00 0.00 40 1022.6
20260503182539 74 90 6.1 12.2 0.00 0.00 0.00 39 1022.6
20260503182109 74 60 7.8 13.0 0.00 0.00 0.00 39 1022.6
20260503181220 73 103 9.6 13.0 0.00 0.00 0.00 38 1022.9
20260503180539 73 67 7.0 11.3 0.00 0.00 0.00 40 1022.9
20260503175859 74 64 7.0 10.4 0.00 0.00 0.00 39 1022.9
20260503175219 73 71 6.1 12.2 0.00 0.00 0.00 39 1023.2
20260503174539 73 60 8.7 12.2 0.00 0.00 0.00 40 1023.2
20260503173859 73 62 7.8 10.4 0.00 0.00 0.00 42 1023.2
20260503173219 74 95 7.8 12.2 0.00 0.00 0.00 40 1023.2
20260503172749 73 58 9.6 12.2 0.00 0.00 0.00 40 1023.2
20260503172110 73 73 6.1 12.2 0.00 0.00 0.00 40 1023.6
20260503171219 74 93 7.0 12.2 0.00 0.00 0.00 41 1023.6
20260503170539 73 74 5.2 11.3 0.00 0.00 0.00 39 1023.6